Tracking 19562 objects as of 22-Mar-2019
HD Live streaming from Space Station
objects crossing your sky now

COSMOS 2172

Track COSMOS 2172 now!
COSMOS 2172 is classified as:


NORAD ID: 21789
Int'l Code: 1991-079A
Perigee: 35,730.2 km
Apogee: 35,809.0 km
Inclination: 15.0 °
Period: 1,434.9 minutes
Semi major axis: 42140 km
RCS: 5.0118 m2 (large)
Launch date: November 22, 1991
Source: Commonwealth of Independent States (former USSR) (CIS)
Launch site: TYURATAM MISSILE AND SPACE COMPLEX (TTMTR)
aabbcc
Your satellite tracking list
Your tracking list is empty




NASA's NSSDC Master Catalog

Two Line Element Set (TLE):
1 21789U 91079A   19080.47392248 +.00000077 +00000-0 +00000-0 0  9994
2 21789 014.9916 002.2481 0009341 325.9789 233.4412 01.00358017020833
Source of the keplerian elements: AFSPC